sat.trackr.live / text

‹ back to catalog

TRANSPORTER-15 OBJECT L

NORAD 66676 · 2025-276L

PAYLOAD ACTIVE UNKNOWN

§ Identity

Operator
Country
TBD
Launch date
2025-11-28
Launch site
AFWTR
Launch vehicle
Mass (kg)
RCS (m²)

External: N2YO · Heavens-Above · Gunter

§ Orbital elements

Epoch: 2026-05-25T02:36:15.697728Z

Period
94.81 min
Inclination
97.4180°
Eccentricity
0.0007625
Mean motion
15.18756802 rev/d
Perigee alt
504.3 km
Apogee alt
514.8 km
Semi-major
6,887.7 km
B*
2.1705e-4
RAAN
218.8034°
Arg perigee
88.7560°
Mean anomaly
271.4548°
Rev number
2,690

§ Raw data

TRANSPORTER-15 OBJECT L1 66676U 25276L   26145.10851502  .00004446  00000+0  21705-3 0  99982 66676  97.4180 218.8034 0007625  88.7560 271.4548 15.18756802 26903

JSON: /api/v1/satellites/66676 · /tle

For live sub-satellite position, see the globe view (requires WebGL).

§ Visibility from observer

Set your observer location to see the next 7 days of passes ≥ 10°. The values pass through the URL so the page stays shareable.

No JS? Fill the form by hand. The geolocation button needs JavaScript.